Time,TemperatureF,DewpointF,PressureIn,WindDirection,WindDirectionDegrees,WindSpeedMPH,WindSpeedGustMPH,Humidity,HourlyPrecipIn,Conditions,Clouds,dailyrainin,SolarRadiationWatts/m^2,SoftwareType,DateUTC
2013-03-29 00:12:00,50.0,28.0,-100.00,South,188,9.0,12.0,43,0.00,,,-99.99,0.000000,,2013-03-29 07:12:00,
2013-03-29 00:22:00,50.0,28.0,-100.00,South,188,9.0,12.0,43,0.00,,,-99.99,0.000000,,2013-03-29 07:22:00,
2013-03-29 00:32:00,50.0,28.0,-100.00,South,188,9.0,12.0,43,0.00,,,-99.99,0.000000,,2013-03-29 07:32:00,
2013-03-29 00:42:00,50.0,28.0,-100.00,South,188,9.0,12.0,43,0.00,,,-99.99,0.000000,,2013-03-29 07:42:00,
2013-03-29 00:51:00,50.0,23.0,-100.00,SSW,199,9.0,13.0,35,0.00,,,-99.99,0.000000,,2013-03-29 07:51:00,
2013-03-29 01:12:00,50.0,23.0,-100.00,SSW,199,9.0,13.0,35,0.00,,,-99.99,0.000000,,2013-03-29 08:12:00,
2013-03-29 01:22:00,50.0,23.0,-100.00,SSW,199,9.0,13.0,35,0.00,,,-99.99,0.000000,,2013-03-29 08:22:00,
2013-03-29 01:32:00,50.0,23.0,-100.00,SSW,199,9.0,13.0,35,0.00,,,-99.99,0.000000,,2013-03-29 08:32:00,
2013-03-29 01:42:00,50.0,23.0,-100.00,SSW,199,9.0,13.0,35,0.00,,,-99.99,0.000000,,2013-03-29 08:42:00,
2013-03-29 01:51:00,48.0,24.0,-100.00,WNW,292,0.0,14.0,38,0.00,,,-99.99,0.000000,,2013-03-29 08:51:00,
2013-03-29 02:12:00,48.0,24.0,-100.00,WNW,292,0.0,14.0,38,0.00,,,-99.99,0.000000,,2013-03-29 09:12:00,
2013-03-29 02:22:00,48.0,24.0,-100.00,WNW,292,0.0,14.0,38,0.00,,,-99.99,0.000000,,2013-03-29 09:22:00,
2013-03-29 02:32:00,48.0,24.0,-100.00,WNW,292,0.0,14.0,38,0.00,,,-99.99,0.000000,,2013-03-29 09:32:00,
2013-03-29 02:42:00,48.0,24.0,-100.00,WNW,292,0.0,14.0,38,0.00,,,-99.99,0.000000,,2013-03-29 09:42:00,
2013-03-29 02:51:00,48.0,25.0,-100.00,East,99,1.0,5.0,41,0.00,,,-99.99,0.000000,,2013-03-29 09:51:00,
2013-03-29 03:22:00,48.0,25.0,-100.00,East,99,1.0,5.0,41,0.00,,,-99.99,0.000000,,2013-03-29 10:22:00,
2013-03-29 03:33:00,48.0,25.0,-100.00,East,99,1.0,5.0,41,0.00,,,-99.99,0.000000,,2013-03-29 10:33:00,
2013-03-29 03:42:00,48.0,25.0,-100.00,East,99,1.0,5.0,41,0.00,,,-99.99,0.000000,,2013-03-29 10:42:00,
2013-03-29 03:51:00,46.0,24.0,-100.00,West,261,4.0,7.0,41,0.00,,,-99.99,0.000000,,2013-03-29 10:51:00,
2013-03-29 04:12:00,46.0,24.0,-100.00,West,261,4.0,7.0,41,0.00,,,-99.99,0.000000,,2013-03-29 11:12:00,
2013-03-29 04:23:00,46.0,24.0,-100.00,West,261,4.0,7.0,41,0.00,,,-99.99,0.000000,,2013-03-29 11:23:00,
2013-03-29 04:32:00,46.0,24.0,-100.00,West,261,4.0,7.0,41,0.00,,,-99.99,0.000000,,2013-03-29 11:32:00,
2013-03-29 04:42:00,46.0,24.0,-100.00,West,261,4.0,7.0,41,0.00,,,-99.99,0.000000,,2013-03-29 11:42:00,
2013-03-29 04:51:00,46.0,24.0,-100.00,West,263,1.0,6.0,41,0.00,,,-99.99,0.000000,,2013-03-29 11:51:00,
2013-03-29 05:22:00,46.0,24.0,-100.00,West,263,1.0,6.0,41,0.00,,,-99.99,0.000000,,2013-03-29 12:22:00,
2013-03-29 05:32:00,46.0,24.0,-100.00,West,263,1.0,6.0,41,0.00,,,-99.99,0.000000,,2013-03-29 12:32:00,
2013-03-29 05:42:00,46.0,24.0,-100.00,West,263,1.0,6.0,41,0.00,,,-99.99,0.000000,,2013-03-29 12:42:00,
2013-03-29 05:51:00,47.0,28.0,-100.00,SSE,152,0.0,3.0,47,0.00,,,-99.99,0.000000,,2013-03-29 12:51:00,
2013-03-29 06:22:00,47.0,28.0,-100.00,SSE,152,0.0,3.0,47,0.00,,,-99.99,0.000000,,2013-03-29 13:22:00,
2013-03-29 06:32:00,47.0,28.0,-100.00,SSE,152,0.0,3.0,47,0.00,,,-99.99,0.000000,,2013-03-29 13:32:00,
2013-03-29 06:42:00,47.0,28.0,-100.00,SSE,152,0.0,3.0,47,0.00,,,-99.99,0.000000,,2013-03-29 13:42:00,
2013-03-29 06:51:00,46.0,26.0,-100.00,SSE,151,0.0,4.0,45,0.00,,,-99.99,2.000000,,2013-03-29 13:51:00,
2013-03-29 07:22:00,46.0,26.0,-100.00,SSE,151,0.0,4.0,45,0.00,,,-99.99,2.000000,,2013-03-29 14:22:00,
2013-03-29 07:32:00,46.0,26.0,-100.00,SSE,151,0.0,4.0,45,0.00,,,-99.99,2.000000,,2013-03-29 14:32:00,
2013-03-29 07:42:00,46.0,26.0,-100.00,SSE,151,0.0,4.0,45,0.00,,,-99.99,2.000000,,2013-03-29 14:42:00,
2013-03-29 08:22:00,53.0,27.0,-100.00,East,92,2.0,5.0,36,0.00,,,-99.99,120.000000,,2013-03-29 15:22:00,
2013-03-29 08:51:00,55.0,27.0,-100.00,ENE,78,7.0,11.0,34,-99.99,,,-99.99,392.000000,,2013-03-29 15:51:00,
2013-03-29 09:12:00,55.0,27.0,-100.00,ENE,78,7.0,11.0,34,-99.99,,,-99.99,392.000000,,2013-03-29 16:12:00,
2013-03-29 09:23:00,55.0,27.0,-100.00,ENE,78,7.0,11.0,34,-99.99,,,-99.99,392.000000,,2013-03-29 16:23:00,
2013-03-29 09:42:00,55.0,27.0,-100.00,ENE,78,7.0,11.0,34,-99.99,,,-99.99,392.000000,,2013-03-29 16:42:00,
2013-03-29 09:51:00,60.0,28.0,-100.00,ESE,105,8.0,13.0,30,0.00,,,-99.99,624.000000,,2013-03-29 16:51:00,
2013-03-29 10:22:00,60.0,28.0,-100.00,ESE,105,8.0,13.0,30,0.00,,,-99.99,624.000000,,2013-03-29 17:22:00,
2013-03-29 10:42:00,60.0,28.0,-100.00,ESE,105,8.0,13.0,30,0.00,,,-99.99,624.000000,,2013-03-29 17:42:00,
2013-03-29 10:51:00,62.0,25.0,-100.00,SE,129,9.0,20.0,24,0.00,,,0.00,867.000000,,2013-03-29 17:51:00,
2013-03-29 11:12:00,62.0,25.0,-100.00,SE,129,9.0,20.0,24,0.00,,,0.00,867.000000,,2013-03-29 18:12:00,
2013-03-29 11:22:00,62.0,25.0,-100.00,SE,129,9.0,20.0,24,0.00,,,0.00,867.000000,,2013-03-29 18:22:00,
2013-03-29 11:32:00,62.0,25.0,-100.00,SE,129,9.0,20.0,24,0.00,,,0.00,867.000000,,2013-03-29 18:32:00,
2013-03-29 11:42:00,62.0,25.0,-100.00,SE,129,9.0,20.0,24,0.00,,,0.00,867.000000,,2013-03-29 18:42:00,
2013-03-29 11:51:00,61.0,23.0,-100.00,ESE,118,10.0,21.0,23,0.00,,,0.00,1017.000000,,2013-03-29 18:51:00,
2013-03-29 12:12:00,61.0,23.0,-100.00,ESE,118,10.0,21.0,23,0.00,,,0.00,1017.000000,,2013-03-29 19:12:00,
2013-03-29 12:22:00,61.0,23.0,-100.00,ESE,118,10.0,21.0,23,0.00,,,0.00,1017.000000,,2013-03-29 19:22:00,
2013-03-29 12:32:00,61.0,23.0,-100.00,ESE,118,10.0,21.0,23,0.00,,,0.00,1017.000000,,2013-03-29 19:32:00,
2013-03-29 12:42:00,61.0,23.0,-100.00,ESE,118,10.0,21.0,23,0.00,,,0.00,1017.000000,,2013-03-29 19:42:00,
2013-03-29 12:51:00,65.0,20.0,-100.00,SE,138,11.0,23.0,18,0.00,,,0.00,1092.000000,,2013-03-29 19:51:00,
2013-03-29 13:12:00,65.0,20.0,-100.00,SE,138,11.0,23.0,18,0.00,,,0.00,1092.000000,,2013-03-29 20:12:00,
2013-03-29 13:22:00,65.0,20.0,-100.00,SE,138,11.0,23.0,18,0.00,,,0.00,1092.000000,,2013-03-29 20:22:00,
2013-03-29 13:32:00,65.0,20.0,-100.00,SE,138,11.0,23.0,18,0.00,,,0.00,1092.000000,,2013-03-29 20:32:00,
2013-03-29 13:42:00,65.0,20.0,-100.00,SE,138,11.0,23.0,18,0.00,,,0.00,1092.000000,,2013-03-29 20:42:00,
2013-03-29 13:51:00,64.0,25.0,-100.00,South,174,14.0,25.0,23,0.00,,,0.00,1051.000000,,2013-03-29 20:51:00,
2013-03-29 14:22:00,64.0,25.0,-100.00,South,174,14.0,25.0,23,0.00,,,0.00,1051.000000,,2013-03-29 21:22:00,
2013-03-29 14:32:00,64.0,25.0,-100.00,South,174,14.0,25.0,23,0.00,,,0.00,1051.000000,,2013-03-29 21:32:00,
2013-03-29 14:42:00,64.0,25.0,-100.00,South,174,14.0,25.0,23,0.00,,,0.00,1051.000000,,2013-03-29 21:42:00,
2013-03-29 14:51:00,61.0,26.0,-100.00,South,178,18.0,28.0,26,0.00,,,0.00,993.000000,,2013-03-29 21:51:00,
2013-03-29 15:12:00,61.0,26.0,-100.00,South,178,18.0,28.0,26,0.00,,,0.00,993.000000,,2013-03-29 22:12:00,
2013-03-29 15:22:00,61.0,26.0,-100.00,South,178,18.0,28.0,26,0.00,,,0.00,993.000000,,2013-03-29 22:22:00,
2013-03-29 15:33:00,61.0,26.0,-100.00,South,178,18.0,28.0,26,0.00,,,0.00,993.000000,,2013-03-29 22:33:00,
2013-03-29 15:42:00,61.0,26.0,-100.00,South,178,18.0,28.0,26,0.00,,,0.00,993.000000,,2013-03-29 22:42:00,
2013-03-29 15:51:00,62.0,29.0,-100.00,South,188,17.0,27.0,29,0.00,,,0.00,784.000000,,2013-03-29 22:51:00,
2013-03-29 16:22:00,62.0,29.0,-100.00,South,188,17.0,27.0,29,0.00,,,0.00,784.000000,,2013-03-29 23:22:00,
2013-03-29 16:32:00,62.0,29.0,-100.00,South,188,17.0,27.0,29,0.00,,,0.00,784.000000,,2013-03-29 23:32:00,
2013-03-29 16:42:00,62.0,29.0,-100.00,South,188,17.0,27.0,29,0.00,,,0.00,784.000000,,2013-03-29 23:42:00,
2013-03-29 16:51:00,60.0,28.0,-100.00,South,183,13.0,25.0,30,0.00,,,0.00,511.000000,,2013-03-29 23:51:00,
2013-03-29 17:12:00,60.0,28.0,-100.00,South,183,13.0,25.0,30,0.00,,,0.00,511.000000,,2013-03-30 00:12:00,
2013-03-29 17:22:00,60.0,28.0,-100.00,South,183,13.0,25.0,30,0.00,,,0.00,511.000000,,2013-03-30 00:22:00,
2013-03-29 17:32:00,60.0,28.0,-100.00,South,183,13.0,25.0,30,0.00,,,0.00,511.000000,,2013-03-30 00:32:00,
2013-03-29 17:42:00,60.0,28.0,-100.00,South,183,13.0,25.0,30,0.00,,,0.00,511.000000,,2013-03-30 00:42:00,
2013-03-29 17:51:00,62.0,25.0,-100.00,NNW,333,5.0,24.0,24,0.00,,,0.00,220.000000,,2013-03-30 00:51:00,
2013-03-29 18:12:00,62.0,25.0,-100.00,NNW,333,5.0,24.0,24,0.00,,,0.00,220.000000,,2013-03-30 01:12:00,
2013-03-29 18:22:00,62.0,25.0,-100.00,NNW,333,5.0,24.0,24,0.00,,,0.00,220.000000,,2013-03-30 01:22:00,
2013-03-29 18:32:00,62.0,25.0,-100.00,NNW,333,5.0,24.0,24,0.00,,,0.00,220.000000,,2013-03-30 01:32:00,
2013-03-29 18:42:00,62.0,25.0,-100.00,NNW,333,5.0,24.0,24,0.00,,,0.00,220.000000,,2013-03-30 01:42:00,
2013-03-29 18:51:00,58.0,27.0,-100.00,NE,48,3.0,11.0,30,0.00,,,0.00,122.000000,,2013-03-30 01:51:00,
2013-03-29 19:22:00,58.0,27.0,-100.00,NE,48,3.0,11.0,30,0.00,,,0.00,122.000000,,2013-03-30 02:22:00,
2013-03-29 19:32:00,58.0,27.0,-100.00,NE,48,3.0,11.0,30,0.00,,,0.00,122.000000,,2013-03-30 02:32:00,
2013-03-29 19:51:00,56.0,29.0,-100.00,WNW,293,0.0,5.0,36,0.00,,,0.00,4.000000,,2013-03-30 02:51:00,
2013-03-29 20:12:00,56.0,29.0,-100.00,WNW,293,0.0,5.0,36,0.00,,,0.00,4.000000,,2013-03-30 03:12:00,
2013-03-29 20:22:00,56.0,29.0,-100.00,WNW,293,0.0,5.0,36,0.00,,,0.00,4.000000,,2013-03-30 03:22:00,
2013-03-29 20:33:00,56.0,29.0,-100.00,WNW,293,0.0,5.0,36,0.00,,,0.00,4.000000,,2013-03-30 03:33:00,
2013-03-29 20:43:00,56.0,29.0,-100.00,WNW,293,0.0,5.0,36,0.00,,,0.00,4.000000,,2013-03-30 03:43:00,
2013-03-29 20:51:00,55.0,29.0,-100.00,West,277,4.0,7.0,36,0.00,,,0.00,0.000000,,2013-03-30 03:51:00,
2013-03-29 21:12:00,55.0,29.0,-100.00,West,277,4.0,7.0,36,0.00,,,0.00,0.000000,,2013-03-30 04:12:00,
2013-03-29 21:23:00,55.0,29.0,-100.00,West,277,4.0,7.0,36,0.00,,,0.00,0.000000,,2013-03-30 04:23:00,
2013-03-29 21:32:00,55.0,29.0,-100.00,West,277,4.0,7.0,36,0.00,,,0.00,0.000000,,2013-03-30 04:32:00,
2013-03-29 21:42:00,55.0,29.0,-100.00,West,277,4.0,7.0,36,0.00,,,0.00,0.000000,,2013-03-30 04:42:00,
2013-03-29 21:51:00,53.0,26.0,-100.00,WSW,256,4.0,7.0,35,0.00,,,0.00,0.000000,,2013-03-30 04:51:00,
2013-03-29 22:12:00,53.0,26.0,-100.00,WSW,256,4.0,7.0,35,0.00,,,0.00,0.000000,,2013-03-30 05:12:00,
2013-03-29 22:22:00,53.0,26.0,-100.00,WSW,256,4.0,7.0,35,0.00,,,0.00,0.000000,,2013-03-30 05:22:00,
2013-03-29 22:32:00,53.0,26.0,-100.00,WSW,256,4.0,7.0,35,0.00,,,0.00,0.000000,,2013-03-30 05:32:00,
2013-03-29 22:42:00,53.0,26.0,-100.00,WSW,256,4.0,7.0,35,0.00,,,0.00,0.000000,,2013-03-30 05:42:00,
2013-03-29 22:51:00,55.0,26.0,-100.00,West,279,2.0,5.0,33,0.00,,,0.00,0.000000,,2013-03-30 05:51:00,
2013-03-29 23:11:00,55.0,26.0,-100.00,West,279,2.0,5.0,33,0.00,,,0.00,0.000000,,2013-03-30 06:11:00,
2013-03-29 23:22:00,55.0,26.0,-100.00,West,279,2.0,5.0,33,0.00,,,0.00,0.000000,,2013-03-30 06:22:00,
2013-03-29 23:32:00,55.0,26.0,-100.00,West,279,2.0,5.0,33,0.00,,,0.00,0.000000,,2013-03-30 06:32:00,
2013-03-29 23:42:00,55.0,26.0,-100.00,West,279,2.0,5.0,33,0.00,,,0.00,0.000000,,2013-03-30 06:42:00,
2013-03-29 23:51:00,53.0,25.0,-100.00,SW,236,2.0,5.0,33,0.00,,,0.00,0.000000,,2013-03-30 06:51:00,